Regional Weather Roundup
Issued by NWS Lake Charles, LA

Current Version | Previous Version | Text Only | Print | Product List | Glossary On
Versions: 1 2 3 4 5 6 7 8 9 10 11 12 13 14 15 16 17 18 19 20 21 22 23 24 25 26 27 28 29 30 31 32 33 34 35 36 37 38 39 40 41 42 43 44 45 46 47 48 49
000
ASUS44 KLCH 231210
RWRLCH
RWRLCH
REGIONAL WEATHER ROUNDUP
NATIONAL WEATHER SERVICE LAKE CHARLES LA
700 AM CDT SAT MAY 23 2015

Note: "fair" indicates few or no clouds below 12,000 feet with no
significant weather and/or obstructions to visibility.


ACROSS SOUTHEAST TEXAS

CITY           SKY/WX    TMP DP  RH WIND       PRES   REMARKS
BEAUMONT       PTCLDY    74  72  93 E6        30.13R
BEAUMONT CITY    N/A     71  70  95 E3        30.13S
ORANGE         MOSUNNY   70  68  94 NE3       30.15S FOG
JASPER         PTCLDY    68  66  94 E5        30.17S
$$

ACROSS CENTRAL LOUISIANA

CITY           SKY/WX    TMP DP  RH WIND       PRES   REMARKS
LEESVILLE      PTCLDY    68  66  94 E6        30.16S
FULLERTON        N/A     69  64  84 CALM      30.16R
ALEXANDRIA INT PTCLDY    67  66  97 E3        30.17S
ESLER FIELD    CLEAR     65  62  90 CALM      30.19S FOG
DERIDDER         N/A     67  66  96 E3        30.18R
OAKDALE        SUNNY     67  65  96 CALM      30.18S FOG
OPELOUSAS        N/A     69  68  96 E3        30.18R FOG
$$

ACROSS SOUTHWEST AND SOUTH CENTRAL LOUISIANA

CITY           SKY/WX    TMP DP  RH WIND       PRES   REMARKS
SULPHUR        SUNNY     72  71  96 E5        30.16R FOG
LAKE CHARLES   CLEAR     70  68  93 E6        30.15R FOG
CHENNAULT INT  CLEAR     70  68  94 E5        30.16R FOG
CAMERON PHI    SUNNY     73  72  94 E9        30.17R FOG
DEQUINCY         N/A     67  67 100 E3        30.16R
JENNINGS         N/A     70  69  98 E7        30.17R FOG
LAFAYETTE      CLEAR     71  69  93 E3        30.18R FOG
NEW IBERIA     CLEAR     73  70  90 E6        30.18R
ABBEVILLE        N/A     71  70  96 E5        30.18R
PATTERSON      NOT AVBL
SALT POINT       N/A     73  71  93 VRB3      30.16R
$$

SELECTED SITES ACROSS THE REGION

CITY           SKY/WX    TMP DP  RH WIND       PRES   REMARKS
HOUSTON BUSH   FOG       74  73  97 E6        30.11R VSB 1
HOUSTON HOBBY  CLOUDY    76  74  93 SE5       30.10R
GALVESTON      MOCLDY    79  76  90 SE14      30.11R
COLLEGE STAT   CLOUDY    74  72  93 SE10      30.11R FOG
CONROE         CLOUDY    72  70  93 SE6       30.13R FOG
HUNTSVILLE     CLOUDY    73  70  90 SE3       30.13R FOG
LUFKIN         CLOUDY    70  65  84 SE6       30.15R
SHREVEPORT     MOCLDY    64  60  87 E3        30.17S
MONROE         PTCLDY    63  59  87 E3        30.22R
NATCHEZ MS     SUNNY     64  57  77 SE7       30.22R
BATON ROUGE    SUNNY     68  66  93 E6        30.20R
N.O. INTL ARPT MOSUNNY   75  68  78 E5        30.19R
SLIDELL        SUNNY     67  62  84 NE3       30.20R
$$

MARINE REPORTS

STATION/POSITION TIME  TEMP    WIND        PRES    VSBY  WAVE
                       AIR SEA DIR/SP/G                  HT/PER
                 (UTC) (F)     (DEG/KT/KT) (MB)    (MI)  (FT/S)
BUOY 30 S HIGH I 1150   79 80  120/ 16/ 17 1018.7R         3/ 4
SEA RIM ST PARK  1200   78     130/ 10/ 13 1020.5R
PORT ARTHUR      1100      78  100/  7/ 10 1020.0S
SABINE PASS N    1100   79 78  140/ 12/ 16 1020.0S
TEXAS POINT      NOT AVBL
CALCASIEU PASS   1100   72 79   90/  8/  9   N/A
LK CHARLES BEACH 1100   70 77              1020.9R
MARSH ISLAND     1100   77     120/ 15/ 18   N/A           0
FRESH WATER LOCK 1100   76 80   90/  7/ 10 1020.8R
AMERADA PASS     1100   73 75   90/  4/  7 1021.1R
$$



USA.gov is the U.S. government's official web portal to all federal, state and local government web resources and services.